User: anonymous   Login
Location: Unspecified
(0.0000°N, 0.0000°E)
Time: 13:20:47
(UTC+00:00)
Language:

STSS ATRR (USA 205) - Orbit

View from above orbital plane
View from above orbital plane
View from above satellite
View from above satellite

Ground track
Ground track

The orbit data is extracted from the following two-line orbital elements,

1 34903U 09023A   15152.91426917 0.00000000  00000-0  00000-0 0    09
2 34903  98.9190 250.2740 0006000 176.8437 183.1562 14.06696387    05
Epoch (UTC): 01 June 2015 21:56:32
Eccentricity: 0.0006000
inclination: 98.9190°
perigee height: 866 km
apogee height: 875 km
right ascension of ascending node: 250.2740°
argument of perigee: 176.8437°
revolutions per day: 14.06696387
mean anomaly at epoch: 183.1562°
orbit number at epoch: 0

The dashed part of the orbit path shows where the satellite is in the earth's shadow,  

DLR